metlocid,date_time,avg_par,std_par,min_par,max_par,n_par,avg_swradin,std_swradin,min_swradin,max_swradin,n_swradin,avg_swradout,std_swradout,min_swradout,max_swradout,n_swradout,n_comments
FRLM,12/1/93,701.5005121,383.201371,67.2,1810.9,3515,,,,,0,,,,,0,0
FRLM,1/1/94,873.1888418,467.3565516,66.6,2291.6,1667,350.7963473,186.4286399,17.1,824,876,69.6952059,52.34301605,0,175.4,876,0
FRLM,2/1/94,393.3450892,315.3921987,1.2,1201.7,224,187.3785714,142.9920157,0,575.8,224,117.1812499,109.520645,0,353.1,224,0
FRLM,3/1/94,135.0258069,180.9588855,0,759.6,248,71.63225812,91.24766946,0,355,248,58.66975804,73.88862051,0,303.5,248,0
FRLM,4/1/94,13.38208331,30.56390326,0,180.3,240,9.294999941,18.99899937,0,108.2,240,7.34375,14.17622947,0,74.6,240,0
FRLM,5/1/94,0.01532258,0.109872471,0,0.9,248,0.095564518,0.412875382,0,3.2,248,0.142338711,0.531994357,0,4.8,248,0
FRLM,6/1/94,0,0,0,0,240,0.138333332,0.559016362,0,4.7,240,0.183750001,0.521771306,0,3.9,240,0
FRLM,7/1/94,0,0,0,0,248,0.172983871,0.648601713,0,4.4,248,0.158064517,0.499164771,0,3.1,248,0
FRLM,8/1/94,2.414112916,7.282350911,0,52.7,248,3.095564515,7.89147158,0,47.8,248,1.946774206,5.306301189,0,36.9,248,0
FRLM,9/1/94,74.66541648,123.6887912,0,545.6,240,40.2112501,64.61265217,0,281.8,240,26.35041665,44.00909282,0,181.3,240,0
FRLM,10/1/94,278.8362899,276.8281037,0,1016.3,248,134.6717742,126.0108471,0,462.9,248,99.12782229,101.2064846,0,417.9,248,0
FRLM,11/1/94,619.8835473,399.657426,37.5,1411.4,389,284.6871458,176.7881182,0,649.7,389,128.5704375,92.17819386,0,343,389,1
FRLM,12/1/94,679.9502233,393.8999567,79.6,1642.5,2232,295.3775995,168.6629196,44.1,760,2232,91.66344231,60.06218318,0,249.9,2232,0
FRLM,1/1/95,636.8647822,394.1171645,45.9,1461.9,2229,279.1395703,170.8195884,0,695.9,2229,71.70462277,48.96695782,0,201.6,2229,0
FRLM,2/1/95,384.5266365,348.1935898,0.6,1235.3,2016,167.3056055,159.4478609,0,563.3,2016,49.87425673,57.94427879,0,297.6,2016,0
FRLM,3/1/95,125.2451165,175.2680926,0,814.4,2232,49.27334219,79.25099398,0,360.5,2232,38.29646064,63.06944702,0,297.9,2232,0
FRLM,4/1/95,13.53574075,32.76271329,0,249.8,2160,6.988935184,20.20563239,0,158.2,2160,4.543055554,13.75354223,0,84.9,2160,0
FRLM,5/1/95,0.020833333,0.176043027,0,2,2232,0.695430107,2.608766504,0,21.7,2232,0.452508959,1.866355727,0,15.9,2232,0
FRLM,6/1/95,0,0,0,0,2160,0.862037037,3.019296215,0,21.7,2160,0.603240738,2.210386164,0,24.2,2160,0
FRLM,7/1/95,0,0,0,0,2232,0.625044802,2.367620169,0,19.9,2232,0.5422491,2.184159777,0,25.2,2232,0
FRLM,8/1/95,2.71267921,9.181851962,0,88,2232,1.635259859,7.937554801,0,72.5,2232,0.836200711,5.329734162,0,74.7,2232,0
FRLM,9/1/95,61.98564809,108.4436424,0,577.1,2160,27.86333321,53.48996576,0,344.3,2160,11.42134249,25.18280288,0,149.5,2160,0
FRLM,10/1/95,289.9014784,293.4294147,0,1076.1,2232,117.7229388,128.6073577,0,450,2232,45.63409487,61.0268761,0,226.1,2232,0
FRLM,11/1/95,579.8383865,378.8655744,26,1766.5,2381,260.6790843,182.9891929,0,926,2381,92.58639241,72.57153167,0,311.5,2381,0
FRLM,12/1/95,682.58834,401.9116146,75.8,1801.2,2976,332.8066533,205.8005133,30.8,927,2976,72.25883731,44.56751817,7.1,180.8,2976,0
FRLM,1/1/96,575.1036633,375.9621446,41.1,1813.7,2975,277.9091428,191.231473,14.3,938,2975,55.8665882,38.1704488,2.6,181.4,2975,0
FRLM,2/1/96,385.8949711,324.2586647,0.7,1322.8,2784,189.0051366,162.7611502,0.2,654.4,2784,40.40129306,34.72926192,0,128.9,2784,0
FRLM,3/1/96,106.126613,153.0462474,0,751,2976,52.43427413,79.54772121,0,383.9,2976,26.75309141,47.33039614,0,311.5,2976,856
FRLM,4/1/96,10.18052082,24.24912981,0,187.1,2880,4.222812501,11.11980592,0,116.3,2880,1.292118059,3.593302175,0,40.6,2880,1819
FRLM,5/1/96,0.016666666,0.136552181,0,1.9,2976,0.009643817,0.070706454,0,1,2976,0.010383065,0.073448464,0,1,2976,2825
FRLM,6/1/96,0,0,0,0,2880,0,0,0,0,2880,0,0,0,0,2880,2731
FRLM,7/1/96,0,0,0,0,2976,6.72E-05,0.002591944,0,0.1,2976,0.000134409,0.003664329,0,0.1,2976,2916
FRLM,8/1/96,2.421385337,8.472577379,0,61.2,2974,1.108238068,3.882351964,0,32.9,2974,0.497141898,1.564359367,0,12.7,2974,2184
FRLM,9/1/96,67.59090281,114.9448298,0,544.2,2880,32.86107633,60.86182754,0,284.8,2880,11.64190972,21.64057646,0,103.6,2880,1215
FRLM,10/1/96,285.1907262,290.1330423,0,1063.5,2976,138.9173052,146.7871187,0,531.5,2976,76.68514784,85.57890907,0,316.7,2976,198
FRLM,11/1/96,562.0522591,368.0994435,22.9,1462.9,2878,276.780368,183.1879094,7.2,749,2878,97.48387768,76.46435937,3.6,388.6,2878,0
FRLM,12/1/96,677.4669688,395.7419235,61.2,1741.6,2976,329.4977488,193.5465186,26.4,845,2976,70.85564517,46.05251699,4.6,345.4,2976,0
FRLM,1/1/97,572.192439,377.9116163,34.7,1562.7,2976,260.5930108,178.7909792,12,725,2976,74.01196235,69.3468778,2.3,426.6,2976,0
FRLM,2/1/97,383.2008553,329.9057958,0.5,1170.3,2688,178.7848586,158.9082907,0.2,569.3,2688,48.5486235,42.45810129,0,195.5,2688,0
FRLM,3/1/97,116.6445567,174.0459518,0,709.4,2976,54.36018151,87.2846841,0,350,2976,29.43326611,44.20784543,0,199.4,2976,849
FRLM,4/1/97,9.972812503,24.06392163,0,206.5,2880,4.010798607,11.19005837,0,117.2,2880,2.853784717,8.457927171,0,91.2,2880,1783
FRLM,5/1/97,0.01515457,0.123651078,0,1.9,2976,0.007762097,0.059041919,0,0.8,2976,0.00577957,0.060253223,0,1,2976,2693
FRLM,6/1/97,0,0,0,0,2880,0,0,0,0,2880,0,0,0,0,2880,2794
FRLM,7/1/97,0,0,0,0,2975,0,0,0,0,2975,0,0,0,0,2975,2912
FRLM,8/1/97,2.725403223,9.200287508,0,70,2976,1.149462365,3.900408042,0,30.8,2976,0.658232527,2.178080125,0,17.2,2976,2288
FRLM,9/1/97,62.40350691,107.4181949,0,588.9,2880,28.66545138,54.00692137,0,305.3,2880,17.06211809,32.24401282,0,167.1,2880,1283
FRLM,10/1/97,249.8518146,269.8861236,0,1046.9,2976,115.0813173,129.2696487,0,507.5,2976,43.6199261,50.74971292,0,235.7,2976,243
FRLM,11/1/97,474.1694258,362.3698813,16.8,1611.4,2875,221.1325797,176.9021365,6.3,818,2876,53.83803058,45.34976254,1.6,167.8,2874,2
FRLM,12/1/97,629.8055129,402.1406445,37.5,1993.9,2975,296.6438638,197.4499028,16.1,894,2966,59.12899867,42.15292013,2.4,249.4,2976,10
FRLM,1/1/98,594.6293014,381.9668924,39.4,1811.2,2976,281.742454,188.4513135,17.6,867,2975,62.7085349,52.50002937,2.6,519.2,2976,1
FRLM,2/1/98,345.4382067,313.0122713,0.7,1470.1,2688,144.6496652,145.7672249,0.2,729,2688,78.75230655,92.48716777,0.1,487.1,2688,0
FRLM,3/1/98,134.230847,196.9278035,0,949.7,2976,65.1120967,99.17139106,0,476.7,2976,42.27627687,62.37494092,0,293.2,2976,0
FRLM,4/1/98,8.493854161,19.5072516,0,177.8,2880,3.633749994,9.726875878,0,101.7,2880,4.244062506,14.24119406,0,168.8,2880,0
FRLM,5/1/98,0.018817204,0.153355999,0,1.9,2976,0.014516129,0.089128184,0,1,2976,0.007526882,0.047567371,0,0.6,2976,0
FRLM,6/1/98,0,0,0,0,2880,0,0,0,0,2880,6.94E-05,0.002634774,0,0.1,2880,0
FRLM,7/1/98,0,0,0,0,2976,0,0,0,0,2976,6.72E-05,0.002591944,0,0.1,2976,0
FRLM,8/1/98,2.296337362,8.410927853,0,71.8,2976,1.143750001,3.905560943,0,36.1,2976,0.543044354,1.63725082,0,13.2,2976,0
FRLM,9/1/98,59.14572914,98.93706098,0,524.7,2880,26.93600691,46.30021707,0,248.5,2880,20.49631943,41.26779977,0,215.8,2880,0
FRLM,10/1/98,290.8218749,295.9234537,0,1144.7,2976,140.3398186,147.5481712,0,582.5,2976,60.34489251,65.29849939,0,303.1,2976,0
FRLM,11/1/98,591.7021873,382.1468925,36,1454.4,2880,288.665868,189.7609587,11.2,723,2880,91.66527777,67.89426216,3,299,2880,0
FRLM,12/1/98,753.9050071,417.6146335,84.7,1562.9,2976,373.1299395,205.205006,36.4,781,2976,80.95675401,48.96004752,6.9,197.5,2976,0
FRLM,1/1/99,549.6207326,367.999459,37.2,1819.8,2976,266.8301177,184.0875096,16.5,847,2975,50.05735889,38.34755567,2.4,244.9,2976,1
FRLM,2/1/99,390.1100822,339.9303369,0.9,1286,2688,193.6251488,174.6896074,0.3,663.2,2688,46.37090773,50.24304292,0.2,351.5,2688,2
FRLM,3/1/99,138.0005712,190.2130616,0,791.1,2976,67.60292345,96.37838729,0,427.1,2976,44.09815192,73.44389331,0,352.2,2976,976
FRLM,4/1/99,9.659409722,24.47459482,0,172.1,2880,4.627534725,12.19482987,0,105.5,2880,3.131493057,7.55426114,0,65.5,2880,2220
FRLM,5/1/99,0.026176075,0.198660119,0,2.9,2976,0.018514785,0.118207673,0,1.4,2976,0.009038979,0.056944177,0,0.8,2976,2846
FRLM,6/1/99,0,0,0,0,2880,0,0,0,0,2880,6.94E-05,0.002634774,0,0.1,2880,2859
FRLM,7/1/99,0,0,0,0,2976,0,0,0,0,2976,3.36E-05,0.001833089,0,0.1,2976,2930
FRLM,8/1/99,1.182090053,3.889482278,0,25.9,2976,0.646875001,1.908763598,0,13.4,2976,0.753259411,2.297003419,0,16.2,2976,2795
FRLM,9/1/99,42.43222214,76.08568995,0,500.3,2880,21.91576387,40.98210481,0,266.8,2880,17.74475694,34.45642512,0,206.6,2880,1871
FRLM,10/1/99,276.3161964,279.2999448,0,1111.8,2976,144.6371641,152.0522724,0,616.8,2976,61.88975145,67.52990378,0,297.7,2976,221
FRLM,11/1/99,491.2603129,347.3559743,8.7,1420.1,2880,254.0675001,185.9147427,2.8,774,2880,73.24218741,59.03744349,0.7,259.7,2880,1
FRLM,12/1/99,648.8366264,372.5917586,48.7,1672.8,2976,342.3361038,197.3320802,21.2,890,2972,71.12036286,44.95437702,3.8,204.7,2976,4
FRLM,1/1/00,695.4037626,427.2181198,55.6,1802.5,2976,314.79358,192.4632761,19.3,817,2975,64.76438166,42.52076271,3.6,174.9,2976,34
FRLM,2/1/00,417.4896227,370.8145357,0,1494.6,2756,181.9112484,165.4947,0.2,686.6,2756,44.05997824,41.41536317,0,216.2,2756,80
FRLM,3/1/00,132.4013104,192.050838,0,1033.5,2976,55.5486223,84.11374676,0,470.3,2976,20.32872984,32.43860424,0,212.1,2976,1149
FRLM,4/1/00,18.17917432,32.4936274,0,210.9,1623,6.993538467,13.56499186,0,105.9,1625,4.0349353,8.558744863,0,77.5,1623,2185
FRLM,5/1/00,,,,,0,,,,,0,,,,,0,2976
FRLM,6/1/00,,,,,0,,,,,0,,,,,0,2880
FRLM,7/1/00,0,0,0,0,863,0,0,0,0,863,0.000347625,0.010212119,0,0.3,863,2973
FRLM,8/1/00,3.438340053,10.73625501,0,81.3,2976,1.338642477,3.893220837,0,37.3,2976,0.43860887,1.149446898,0,8.5,2976,2222
FRLM,9/1/00,68.25128481,124.5493649,0,610.1,2880,27.7420139,54.66465278,0,258.7,2880,12.78114584,24.50342553,0,129.1,2880,1490
FRLM,10/1/00,321.9117943,323.163044,0,1186.7,2976,141.2997311,143.5999177,0,532.1,2976,62.1305107,70.62107433,0,253.8,2976,230
FRLM,11/1/00,525.8612508,382.9194892,26.8,1545.2,2880,240.0484017,178.2594622,11,772,2878,74.87562499,66.682495,2.5,328.1,2880,34
FRLM,12/1/00,729.169388,417.7701019,84.9,1733.1,2976,345.6239581,195.1924664,30.7,848,2976,72.26055108,45.02625845,6.6,196.3,2976,22
FRLM,1/1/01,645.6273856,410.7144234,75.5,1741.8,2976,304.5561155,194.9123783,17.5,848,2976,61.75221771,42.66927355,3.4,181.3,2976,32
FRLM,2/1/01,400.0068822,346.2430576,0.9,1350.1,2688,184.3232514,163.7253229,0.2,645.3,2688,39.5887649,36.78198055,0,134.7,2688,1
FRLM,3/1/01,144.8686825,206.2282116,0,859.2,2976,62.50299054,92.93185669,0,397.2,2976,19.93329973,33.47506476,0,207.9,2976,596
FRLM,4/1/01,10.04975695,26.43932967,0,261.5,2880,3.688923611,10.73938573,0,117.1,2880,2.82277778,7.643181518,0,61.4,2880,1642
FRLM,5/1/01,0.038844086,0.188518882,0,2,2976,0.015356183,0.077325512,0,0.6,2976,0.004200269,0.035254164,0,0.4,2976,2546
FRLM,6/1/01,0.004667243,0.055674901,0,1,2314,0.003327571,0.021652222,0,0.2,2314,0,0,0,0,2314,2840
FRLM,7/1/01,,,,,0,,,,,0,,,,,0,2976
FRLM,8/1/01,,,,,0,,,,,0,,,,,0,2976
FRLM,9/1/01,,,,,0,,,,,0,,,,,0,2880
FRLM,10/1/01,,,,,0,,,,,0,,,,,0,2976
FRLM,11/1/01,750.6531225,389.5522975,165.2,1442.6,288,364.9118054,197.4737647,69.4,724,288,73.89409699,42.96534269,12.8,151.7,288,2592
FRLM,12/1/01,755.25904,391.7158787,57.4,1717.2,2976,370.0773858,201.353348,21.5,877,2976,69.84939518,40.76668173,4,173.5,2976,0
FRLM,1/1/02,607.2794691,390.4256374,51.3,1549.5,2976,297.6871975,200.9296993,17,800,2976,55.39952955,38.63492325,2.7,221.4,2976,0
FRLM,2/1/02,347.8727306,315.1264199,0,1290,2688,175.4790551,166.3080325,0.3,681.9,2688,40.79404759,40.73700979,0,159.5,2688,2
FRLM,3/1/02,126.6108536,176.9678841,0,775.3,2976,64.57745301,95.41587635,0,418.5,2976,28.42573924,47.39143558,0,305.6,2976,928
FRLM,4/1/02,10.68135418,25.52296808,0,235,2880,4.240277783,12.2460376,0,141.1,2880,1.93086805,6.492259115,0,82.6,2880,1345
FRLM,5/1/02,0.010651882,0.117641153,0,1.7,2976,0.008669355,0.063659628,0,0.8,2976,0.005611559,0.039306112,0,0.4,2976,1686
FRLM,6/1/02,0.000104167,0.004166088,0,0.2,2880,0.001284722,0.013761812,0,0.2,2880,0.027708334,0.048056624,0,0.4,2880,2869
FRLM,7/1/02,0.000403226,0.009693039,0,0.3,2976,0.004233871,0.02597124,0,0.3,2976,0.059509409,0.055582126,0,0.3,2976,2948
FRLM,8/1/02,2.351915317,7.816021654,0,68.9,2976,1.05860215,3.689152842,0,37.8,2976,0.586256722,1.916887175,0,19.5,2976,2243
FRLM,9/1/02,59.30534719,111.3096786,0,513.5,2880,31.39954857,63.61915984,0,284.4,2880,19.05697918,34.67333831,0,161.9,2880,1517
FRLM,10/1/02,266.8356522,270.7217693,0,1098.1,2976,128.2388777,135.9670911,0,579.7,2976,74.63595432,87.82737465,0,456.9,2976,717
FRLM,11/1/02,560.2694788,369.3945732,15.2,1623,2880,283.5650347,190.6524996,5.7,877,2880,144.1270137,107.3404714,3.1,617,2880,2
FRLM,12/1/02,658.0270499,388.8358533,23.3,1653,2976,327.89748,199.5832574,8.4,846,2976,88.68007391,56.16066324,1.8,418.5,2976,5
FRLM,1/1/03,520.4088379,379.4710124,15.4,1957.2,2976,255.800168,196.2534152,5.5,1040,2976,52.90302421,41.91485845,0.9,210.9,2976,4
FRLM,2/1/03,360.3970979,326.5065241,0.7,1269.1,2688,180.2723957,171.7109299,0.2,663,2688,40.5978051,40.37013065,0.1,293,2688,14
FRLM,3/1/03,122.1925068,168.5517831,0,708.1,2976,62.8485887,94.26181092,0,509,2976,45.61024872,76.02225473,0,348.9,2976,1351
FRLM,4/1/03,7.117465297,16.72969833,0,165.6,2880,3.216631946,9.1184558,0,107.6,2880,4.480625004,13.12919766,0,175.7,2880,2568
FRLM,5/1/03,0.011592742,0.118321669,0,1.7,2976,0.014549731,0.064404178,0,1,2976,0.067405915,0.096976779,0,1.2,2976,2968
FRLM,6/1/03,0,0,0,0,2880,0.003368056,0.02218782,0,0.2,2880,0.041284723,0.054595188,0,0.2,2880,2872
FRLM,7/1/03,0,0,0,0,2976,0.003797043,0.023242192,0,0.2,2976,0.04593414,0.055400159,0,0.3,2976,2965
FRLM,8/1/03,2.303629032,7.696104894,0,53.2,2976,0.906854836,2.992586918,0,26,2976,0.647580646,1.835866985,0,15,2976,2509
FRLM,9/1/03,53.29388896,92.2293938,0,533.5,2880,25.44670133,48.83124358,0,296.5,2880,13.69722221,26.03617792,0,148.2,2880,1045
FRLM,10/1/03,274.7055446,286.6418402,0,1107.2,2976,142.5610886,153.7478429,0,583.6,2976,54.05470428,61.48685306,0,266.2,2976,74
FRLM,11/1/03,517.952292,351.5164464,26,1388,2880,259.7717364,183.4700265,10.5,731,2880,74.23211807,53.9859077,2.9,276,2880,7
FRLM,12/1/03,665.2972783,384.0468714,58.7,1758.8,2976,328.980578,197.8158269,24.8,914,2976,93.59485717,62.13435528,6,370,2975,5
FRLM,1/1/04,625.4059479,375.6938113,69.2,1611.6,2976,301.2817876,189.9352103,17.4,818,2976,58.15544355,37.64390094,2.9,167.7,2976,2
FRLM,2/1/04,379.2569325,325.8967504,0,1153.6,2784,182.3744612,164.8208154,0.2,582.8,2784,50.16605605,58.42890107,0.1,343,2784,2
FRLM,3/1/04,136.4841735,194.211653,0,1044.8,2976,66.05184817,99.00716892,0,545.2,2976,40.27328632,60.3893592,0,321.1,2976,476
FRLM,4/1/04,10.95145832,25.87166414,0,224.1,2880,4.602465268,12.47425596,0,137,2880,2.831493058,8.495626145,0,127.9,2880,1353
FRLM,5/1/04,0.026512096,0.211181699,0,2.1,2976,0.023219086,0.113678837,0,1.2,2976,0.010383065,0.062414078,0,0.8,2976,2771
FRLM,6/1/04,0.000138889,0.003724838,0,0.1,2880,0.005451389,0.032088435,0,0.5,2880,0.000798611,0.009284272,0,0.2,2880,2856
FRLM,7/1/04,0.00047043,0.010680091,0,0.4,2976,0.003494624,0.023217322,0,0.3,2976,0.00047043,0.00818569,0,0.2,2976,2790
FRLM,8/1/04,2.329368281,6.88971694,0,45,2976,1.035819894,2.820490548,0,21.6,2976,0.45981183,1.86625708,0,25.5,2976,2241
FRLM,9/1/04,67.91781259,116.5210321,0,545.5,2880,32.18006944,57.75302997,0,275.5,2880,23.26072919,43.75063643,0,235.9,2880,1409
FRLM,10/1/04,287.5015795,283.9764096,0,1119,2976,142.6774866,146.3493703,0,574.7,2976,58.70262091,67.87900516,0,288.1,2976,192
FRLM,11/1/04,532.0797916,347.0204326,20,1348.7,2880,261.4035415,178.5781095,7.7,693.6,2880,56.16472224,39.54915622,1.4,171.9,2880,2
FRLM,12/1/04,610.6562165,363.7458573,78.7,1573.8,2976,295.6431451,186.4772944,33.5,811,2976,54.64240588,35.02135501,5.4,189.6,2976,18
FRLM,1/1/05,520.6795363,355.231011,16.1,1657.2,2976,248.9859207,181.2924862,5.7,844,2976,45.85641798,33.58926204,0.9,247.3,2976,5
FRLM,2/1/05,368.3986608,319.3624928,1,1156.7,2688,178.8151413,164.6542748,0.3,599.2,2688,61.27775297,76.13957697,0.2,409.3,2688,84
FRLM,3/1/05,125.9703965,170.8248994,0,726.5,2976,61.7710349,88.97905636,0,384.3,2976,32.5410954,51.28410836,0,273.4,2976,846
FRLM,4/1/05,10.83624998,26.14804159,0,206.2,2880,4.89100695,12.35050934,0,116,2880,1.976111109,4.509364117,0,44.1,2880,1781
FRLM,5/1/05,0.024395161,0.20390219,0,3.1,2976,0.024932796,0.125490616,0,1.6,2976,0.008064516,0.054776711,0,0.8,2976,2837
FRLM,6/1/05,0.000486111,0.018443415,0,0.7,2880,0.001805556,0.019283908,0,0.4,2880,3.47E-05,0.00186339,0,0.1,2880,2049
FRLM,7/1/05,0.000537634,0.016183193,0,0.6,2976,0.001041667,0.01380258,0,0.3,2976,0.000134409,0.003664329,0,0.1,2976,2004
FRLM,8/1/05,2.731250001,8.987316447,0,68.7,2976,1.226780914,3.751983921,0,31,2976,0.461290324,1.485429591,0,13.2,2976,1026
FRLM,9/1/05,71.73336796,124.8346268,0,552.2,2880,35.31517359,66.99949775,0,291.8,2880,12.03444444,23.30904028,0,95,2880,599
FRLM,10/1/05,291.8877014,292.7930987,0,1141,2976,146.3034947,152.803108,0,601.7,2976,40.20134405,42.04368444,0,160.8,2976,75
FRLM,11/1/05,544.913264,357.1116846,24.2,1320.4,2880,270.6089584,186.577997,10.4,695.8,2880,58.86618058,39.96854592,1.9,155.9,2880,2
FRLM,12/1/05,641.7347904,378.3090051,74.4,2097.9,2975,306.6881684,191.0936325,29.6,874,2975,60.60998325,39.25060064,5.4,235.2,2975,110
FRLM,1/1/06,583.9620967,386.9803448,27.1,1695.6,2976,273.5395497,188.7265254,10.7,838,2976,50.47708329,35.05380664,1.6,146.8,2976,282
FRLM,2/1/06,366.4027903,335.2986273,0,1195.1,2688,173.808445,167.6634655,0,587.2,2688,54.23374257,55.45972196,0,313.3,2688,281
FRLM,3/1/06,116.3895162,176.9873317,0,795.3,2976,56.6894153,89.4782488,0,422.6,2976,30.23017473,48.51707961,0,295.2,2976,959
FRLM,4/1/06,11.24565973,25.67994305,0,204.7,2880,4.729444452,13.83990868,0,162,2880,3.0690625,9.974679529,0,111.7,2880,1473
FRLM,5/1/06,0.027016129,0.219891422,0,3.2,2976,0.014381721,0.098602781,0,1.4,2976,0.004435484,0.036306129,0,0.5,2976,1632
FRLM,6/1/06,0.000486111,0.007892105,0,0.2,2880,0.002152778,0.01794063,0,0.2,2880,0.000694444,0.009103838,0,0.2,2880,1852
FRLM,7/1/06,0.001848118,0.02792448,0,0.8,2976,0.003629032,0.034205541,0,0.6,2976,0.001444893,0.016022956,0,0.3,2976,2684
FRLM,8/1/06,2.290893818,7.1803238,0,51.7,2976,1.053763444,3.16939663,0,23.7,2976,0.769758065,2.753754858,0,32.7,2976,1823
FRLM,9/1/06,54.48152783,89.26654687,0,534.4,2880,23.82472221,41.78337513,0,265.2,2880,15.92701391,38.44475933,0,333.3,2880,1416
FRLM,10/1/06,292.4418347,294.339198,0,1129.6,2976,137.0576274,143.7894814,0,558.1,2976,64.94932794,73.27718105,0,306.3,2976,143
FRLM,11/1/06,575.4276387,375.2738042,29.9,1569.6,2880,266.3790622,182.0045391,8.9,762,2880,91.70180556,71.37485933,3.6,384.5,2880,164
FRLM,12/1/06,695.8860891,394.6128263,90.5,1835,2976,328.1866265,191.9500845,35.6,909,2976,70.40356186,42.42325119,7.7,193,2976,303
FRLM,1/1/07,609.9897516,378.6810459,64,1757.4,2976,287.4783599,184.9831097,15.4,871,2976,53.77738572,35.63258043,2.4,157,2976,2
FRLM,2/1/07,341.2911455,305.5502136,0.7,1256.9,2688,157.4091891,149.7723931,0.2,629.9,2688,47.10412943,62.41831774,0.2,376.8,2688,283
FRLM,3/1/07,140.0831654,195.2280314,0,747,2976,67.88067885,100.273863,0,379.7,2976,33.29721104,59.24626269,0,339.5,2976,626
FRLM,4/1/07,11.3073264,29.31087225,0,259.9,2880,4.79038195,15.02622011,0,158.6,2880,3.158020827,9.398744928,0,105.4,2880,1714
FRLM,5/1/07,0.024731183,0.214609113,0,3.2,2976,0.019724463,0.105148434,0,1.4,2976,0.006922043,0.040655991,0,0.4,2976,2422
FRLM,6/1/07,0.000590278,0.017572324,0,0.7,2880,0.003194444,0.023207621,0,0.4,2880,0.000555556,0.007434118,0,0.1,2880,2200
FRLM,7/1/07,0.000336022,0.011877017,0,0.6,2976,0.001680108,0.015024903,0,0.2,2976,0.000336022,0.005787961,0,0.1,2976,2557
FRLM,8/1/07,2.684307799,9.046163184,0,77.1,2976,1.259979841,4.143740198,0,42.9,2976,0.568346775,2.080935331,0,19.9,2976,1742
FRLM,9/1/07,61.12930551,105.0157188,0,515,2880,29.19315972,54.89868967,0,275.5,2880,12.80055554,22.99503696,0,115.7,2880,1037
FRLM,10/1/07,264.1012099,283.4611517,0,1319.9,2976,124.1728495,137.5220782,0,690.8,2976,82.84418689,110.4770994,0,563.2,2976,564
FRLM,11/1/07,551.9762503,369.1545119,38.7,1545.3,2880,254.2007987,179.1529826,10.3,771,2880,104.9032987,98.36687517,6.1,560.4,2880,58
FRLM,12/1/07,673.4262949,398.1761533,84,1630.5,2974,332.8838317,206.3266546,33.3,845,2975,70.83080025,46.90729882,5.7,204.8,2974,3
FRLM,1/1/08,572.4499661,366.1521101,52,1624.6,2976,284.3714383,192.2640399,19.4,858,2976,51.95641796,35.69493219,3.4,152.7,2976,0
FRLM,2/1/08,320.5205821,288.8636751,0,1274.9,2784,165.5068607,157.8574601,0.2,722,2784,36.46429603,38.44139562,0,282.9,2784,2
FRLM,3/1/08,113.606754,153.5236737,0,748.9,2976,58.65063845,84.57735605,0,431,2976,23.13545031,40.04882342,0,219.7,2976,612
FRLM,4/1/08,10.35947916,25.44281497,0,201.1,2880,5.005868071,14.86608295,0,145,2880,1.219131945,3.674925397,0,40.3,2880,1147
FRLM,5/1/08,0.019018817,0.175052006,0,2,2976,0.018346774,0.100750572,0,1.4,2976,0.003326613,0.029545957,0,0.4,2976,2217
FRLM,6/1/08,0,0,0,0,2880,0.001944444,0.015015462,0,0.2,2880,0,0,0,0,2880,2108
FRLM,7/1/08,0.000436828,0.015658457,0,0.8,2976,0.003158602,0.022079377,0,0.3,2976,0.000168011,0.004096155,0,0.1,2976,2585
FRLM,8/1/08,2.756619627,8.613661027,0,57.3,2976,1.26733871,3.684953066,0,33.3,2976,0.65047043,1.900204264,0,16.9,2976,1896
FRLM,9/1/08,62.69069434,103.8704719,0,509.4,2880,32.69378478,58.7189579,0,308.2,2880,8.584548619,15.33427131,0,77.4,2880,933
FRLM,10/1/08,259.0398521,264.2465699,0,1024.4,2976,134.2156922,144.0592102,0,558.7,2976,46.08397177,51.47139068,0,277.2,2976,116
FRLM,11/1/08,549.3517706,345.0660252,14.3,1369.4,2880,284.7413888,189.3390568,4.3,750,2880,59.92093753,39.10347278,0.8,143.8,2880,1
FRLM,12/1/08,712.3429107,364.782925,57.3,1577.4,2976,374.1425738,197.5602227,21,852,2976,65.65077291,35.53295001,3.5,146.4,2976,0
FRLM,1/1/09,540.2233873,335.37663,32.8,1624.6,2976,282.735383,185.8870131,15.4,894,2976,54.32708332,35.59707427,2.3,154,2976,0
FRLM,2/1/09,323.9209451,285.5122078,0.8,1179,2688,172.8358633,161.3569086,0.2,676.9,2688,79.97351197,98.36257923,0.2,407.9,2688,110
FRLM,3/1/09,119.8585015,168.5423593,0,812,2976,66.30920708,99.81618909,0,472.8,2976,27.01125673,42.1932836,0,275.3,2976,599
FRLM,4/1/09,9.761666671,23.97753092,0,195.4,2880,4.606145828,12.7778929,0,144.2,2880,1.763298615,4.816072103,0,56.5,2880,1263
FRLM,5/1/09,0.024731183,0.190937347,0,2.9,2976,0.015759409,0.105018421,0,1.6,2976,0.00406586,0.03846117,0,0.6,2976,2290
FRLM,6/1/09,0.001423611,0.028043553,0,0.9,2880,0.0046875,0.027433451,0,0.3,2880,0,0,0,0,2880,2363
FRLM,7/1/09,0.000806452,0.018316219,0,0.6,2976,0.004502688,0.028282275,0,0.4,2976,0.000134409,0.003664329,0,0.1,2976,2236
FRLM,8/1/09,2.739213704,8.773973979,0,75.4,2976,1.251780917,3.66314145,0,37.1,2976,0.551747313,1.646893783,0,16.2,2976,1919
FRLM,9/1/09,67.71798607,116.1760785,0,723.3,2880,36.70527772,68.98899437,0,436.1,2880,12.3701389,24.39894668,0,181.9,2880,987
FRLM,10/1/09,260.3814854,267.641114,0,1022.3,2976,138.37416,148.6933236,0,580.4,2976,56.04375008,58.15884611,0,233.5,2976,404
FRLM,11/1/09,527.3617923,363.7255158,12.7,1568.1,2879,274.0190411,198.1732649,5.2,829,2878,109.0959694,90.71370896,1.1,468.8,2878,118
FRLM,12/1/09,680.0886755,411.961392,64,1821.5,2976,338.4858202,213.576968,26.8,955,2976,74.42123657,49.39766953,5.4,214.3,2976,3
FRLM,1/1/10,567.3495633,365.7023749,33.8,1531.6,2976,282.397984,192.7527725,14.6,792,2976,66.11454971,49.00210287,2.6,433,2976,48
FRLM,2/1/10,336.0694944,304.7343862,0.1,1258.7,2688,169.012872,164.5153478,0.2,711,2688,61.48478423,65.7895337,0.2,387.5,2688,60
FRLM,3/1/10,120.1144153,171.1722458,0,734.8,2976,61.98706314,94.9413279,0,401.5,2976,26.52234543,40.59855086,0,193.3,2976,754
FRLM,4/1/10,11.54288194,29.17519571,0,265.1,2880,5.534340271,16.67445952,0,183.1,2880,3.118229165,10.81702296,0,113.2,2880,1447
FRLM,5/1/10,0.024126344,0.189158,0,2.6,2976,0.015188172,0.098515869,0,1.3,2976,0.006283602,0.049032649,0,0.6,2976,2291